Flag for U.S.A. Weather past 2 weeks in Independence, Missouri, U.S.A.

Now
37 °F

Overcast.


Feels Like: 27 °F
Forecast: 34 / 49 °F
Wind: 18 mph from Northwest

Location: Lee's Summit Municipal Airport

Current Time: Jan 25, 2015 at 10:57:15 AM

Latest Report: Jan 25, 2015 at 9:53 AM


Visibility: 10 mi

Pressure: 29.75 "Hg

Humidity: 86%

Dew point: 33 °F

Location of IndependenceLocation

Historic Weather in Independence — Graph

°F

Independence temperature yesterday

Maximum temperature yesterday: 59 °F (at 3:53 PM)
Minimum temperature yesterday: 28 °F (at 7:53 AM)
Average temperature yesterday: 44 °F

Past Weeks' High & Low Weather Summary

 TemperatureHumidityPressure
High64 °F (Jan 19, 2:53 PM)97% (Jan 11, 6:53 PM)30.73 "Hg (Jan 11, 6:53 PM)
Low5 °F (Jan 13, 5:53 AM)22% (Jan 10, 1:53 PM)29.63 "Hg (Jan 25, 3:53 AM)
Average36 °F58%30.18 "Hg
* Reported Jan 10 9:53 AM — Jan 25 9:04 AM, Independence, Weather by CustomWeather, © 2014

Note: Actual official high and low records may vary slightly from our data, if they occured in-between our weather recording intervals... More about our weather records

Advertising

Independence weather history for previous 24 hours

 ConditionsComfort  
Time TempWeatherWind HumidityBarometerVisibility
9:04 AM
Jan 25
37 °FLight snow. Fog.18 mph89%29.72 "Hg6 mi
8:53 AM37 °FLight snow. Fog.21 mph89%29.72 "Hg2 mi
7:53 AM39 °FLight rain. Fog.16 mph86%29.69 "Hg6 mi
6:53 AM43 °FMostly cloudy.15 mph76%29.66 "Hg10 mi
6:00 AM45 °FMostly cloudy.16 mph76%29.64 "Hg10 mi
4:53 AM46 °FOvercast.12 mph73%29.64 "Hg10 mi
3:53 AM46 °FMostly cloudy.12 mph77%29.63 "Hg10 mi
2:53 AM47 °FPassing clouds.9 mph83%29.65 "Hg10 mi
1:53 AM47 °FMostly cloudy.13 mph86%29.64 "Hg10 mi
12:53 AM46 °FLight rain. Mostly cloudy.9 mph86%29.65 "Hg10 mi
11:53 PM
Jan 24
45 °FOvercast.8 mph93%29.67 "Hg10 mi
10:53 PM46 °FLight rain. Overcast.7 mph89%29.71 "Hg10 mi
9:53 PM50 °FLight rain. Overcast.16 mph66%29.73 "Hg10 mi
8:53 PM52 °FClear.13 mph40%29.72 "Hg10 mi
7:53 PM53 °FPassing clouds.14 mph38%29.73 "Hg10 mi
6:53 PM52 °FPassing clouds.9 mph40%29.75 "Hg10 mi
5:53 PM55 °FClear.9 mph34%29.76 "Hg10 mi
4:53 PM57 °FSunny.12 mph34%29.76 "Hg10 mi
3:53 PM59 °FSunny.12 mph31%29.76 "Hg10 mi
2:53 PM56 °FSunny.15 mph36%29.80 "Hg10 mi
1:53 PM58 °FSunny.16 mph36%29.82 "Hg10 mi
12:53 PM55 °FSunny.10 mph39%29.86 "Hg10 mi
11:53 AM51 °FSunny.13 mph44%29.91 "Hg10 mi
10:53 AM46 °FSunny.12 mph54%29.95 "Hg10 mi
Weather by CustomWeather, © 2014

See weather overviewHow to use our weather pages